Find Starlink 34618

NORAD ID: 64770 Int'l Des: 2025-147 Owner: SPXS Country: US Constellation: starlink operational
LEOCIRCULAR

現在のビュー

3D地球を読み込み中...

About Starlink 34618

Starlink 34618 (NORAD 64770) is a starlink constellation satellite (v2 mini) launched Jul 8, 2025 by SPXS of US. It operates in LEO, CIRCULAR orbit with a mass of 575.00 kg.

Starlink 34618について

説明を読み込み中...

次回通過

Passes for default location (London). Set your location on the main map for personalized predictions.

高度履歴

Loading altitude history...

軌道要素

1 64770U 25147R 26194.73127639 .00008136 00000-0 25169-3 0 9997
2 64770 53.1586 14.8654 0001340 96.0030 264.1125 15.34396053 58012
Epoch: Jul 13, 2026 • Age: 11 hours

現在のステータス

高度 468.2 km
遠地点 / 近地点 N/A
速度 7.63 km/s
衛星直下点 -18.51°S, 0.37°E
打ち上げ日 Jul 8, 2025
運用期間 1 year
タイプ internet

技術仕様

分類 Payload
質量 575.00 kg
乾燥質量 530.00 kg
総質量 575.00 kg
長さ 0.30 m
直径 4.10 m
スパン 29.00 m
形状 Box + pan
製造者 SPXS
バスタイプ Starlink V2MO
フェーズステータス In Orbit
所有者/国 SPXS/US

Most Searched